Temp_Advection
nan nan nan nan nan nan nan nan nan nan nan nan nan nan nan nan nan nan nan nan nan nan nan nan nan nan nan nan nan nan nan nan nan nan nan nan nan nan nan nan nan nan nan nan nan nan nan nan nan nan nan nan nan nan nan nan nan nan nan nan nan nan nan nan nan nan nan nan nan
nan -0 -0 -0 -0 -0 0 -0 -1 -1 -1 -0 -0 -0 0 0 0 -0 -0 0 0 0 0 0 0 0 0 0 1 1 1 1 1 1 1 0 0 0 0 1 1 1 1 1 0 -0 -1 -0 -0 0 0 0 1 0 0 0 0 -0 -0 -0 0 0 1 1 1 1 1 1 nan
nan 0 0 -0 -0 0 -0 -1 -2 -1 -0 0 0 0 0 0 0 -0 0 0 0 0 0 0 0 0 0 0 1 1 0 0 0 0 0 0 0 0 0 1 1 1 1 0 -0 -0 -0 0 0 0 0 0 1 1 0 0 0 0 0 0 0 0 0 1 1 1 1 0 nan
nan 0 0 -0 -0 -1 -1 -2 -1 -0 0 1 0 0 0 0 0 0 0 0 0 0 0 0 0 0 0 0 0 0 0 0 0 0 0 0 0 0 0 0 0 0 -0 -0 -0 0 0 1 0 0 0 0 1 1 0 1 1 1 1 0 0 -0 0 1 1 1 1 0 nan
nan 0 -0 -0 -1 -1 -1 -1 -0 0 1 1 0 0 0 0 0 0 0 0 0 0 0 0 0 0 0 0 0 0 0 0 0 0 0 0 0 0 -0 -0 0 0 -0 -0 0 1 1 0 -0 0 0 1 1 1 1 1 1 1 0 -0 -0 -0 1 1 1 1 1 0 nan
nan -0 -0 -0 -0 -0 -0 -0 0 1 1 1 0 0 0 0 0 0 0 0 0 0 0 0 0 0 0 0 0 0 0 0 0 0 0 0 -0 -0 -0 0 0 -0 0 0 0 0 0 -0 -0 0 0 1 1 2 1 1 0 -0 -1 -1 -0 1 1 1 1 1 1 1 nan
nan -0 -0 -0 -0 -0 -0 0 1 1 1 0 0 0 0 0 0 0 0 0 0 0 0 0 0 0 0 0 0 0 0 0 0 0 0 -0 -0 -0 -0 -0 -0 -0 0 1 1 0 -0 -0 -0 0 0 1 1 1 1 0 -0 -0 -1 -0 0 0 0 1 1 1 1 1 nan
nan 0 0 0 -0 -0 -0 0 1 1 0 0 -0 0 0 0 0 0 0 0 0 0 0 0 0 0 0 0 0 0 0 0 0 0 0 0 0 0 0 0 -0 -0 0 1 1 1 0 -0 -0 0 0 -0 -0 0 0 0 -0 -0 0 0 0 0 1 1 1 1 1 0 nan
nan 1 1 0 -0 0 0 0 0 0 0 0 0 0 0 0 0 0 0 0 0 0 0 0 0 0 0 0 0 0 -0 -0 0 0 0 0 0 0 0 0 0 0 0 1 1 0 0 -0 0 0 -0 -0 -0 -0 0 0 0 0 0 0 0 0 1 1 1 0 0 0 nan
nan 1 1 0 -0 0 0 0 0 0 0 0 0 0 0 0 0 0 0 0 0 0 0 0 -0 -0 0 0 0 -0 -0 0 0 0 0 0 0 0 0 0 0 0 0 0 0 0 0 0 0 0 0 0 0 0 0 0 0 0 0 0 0 0 0 0 0 0 0 0 nan
nan 1 0 -0 -0 0 0 0 0 1 0 0 0 0 0 0 0 0 0 0 0 0 0 -0 -0 0 0 0 0 0 0 1 1 0 0 0 0 0 0 0 0 0 0 0 0 0 0 0 0 0 0 0 0 0 0 0 0 0 0 0 0 0 -0 -0 -0 -0 0 0 nan
nan 0 0 -0 0 0 0 0 1 1 0 0 0 0 0 0 0 0 0 0 0 -0 -0 -0 0 0 0 0 0 0 0 0 0 0 0 0 0 -0 -0 -0 -0 0 0 0 0 0 -0 -0 -0 -0 -0 -0 0 0 0 0 0 0 0 0 0 -0 -0 0 0 0 0 0 nan
nan 0 0 0 1 1 0 1 1 0 0 0 0 0 0 0 0 0 0 0 0 -0 -0 0 0 0 0 0 0 0 0 0 0 0 0 -0 -0 0 0 0 0 0 0 0 -0 -0 -0 -0 -0 -0 -0 -0 0 0 0 0 1 1 0 0 0 -0 -0 0 0 0 0 0 nan
nan 0 1 1 1 1 1 1 0 0 0 0 0 0 0 0 0 0 0 0 0 0 0 0 0 0 0 0 0 0 0 0 0 -0 -0 -0 0 0 0 0 0 0 0 -0 -0 -0 -0 0 0 0 -0 0 0 0 0 0 0 1 0 0 0 -0 -0 0 0 1 1 1 nan
nan 1 1 1 1 1 1 0 0 0 0 0 0 1 0 0 0 0 0 -0 0 0 0 0 0 0 0 0 0 0 0 -0 -0 -0 -0 -0 0 0 0 0 0 -0 -0 0 0 0 1 1 0 0 0 -0 0 0 0 0 0 0 0 0 0 0 -0 0 0 0 0 1 nan
nan 1 1 0 1 1 0 0 0 0 0 0 0 1 0 0 0 0 0 -0 -0 0 0 0 0 0 0 0 0 0 0 -0 -0 -0 -0 0 0 0 0 0 0 0 0 0 0 0 1 1 0 0 0 0 0 0 0 0 0 0 0 0 0 0 -0 -0 0 0 0 1 nan
nan 0 0 0 0 0 0 0 0 0 0 0 1 0 0 0 0 0 0 0 0 0 0 0 0 0 0 0 0 0 0 0 -0 -0 0 0 0 0 0 0 0 0 0 0 0 0 0 0 0 0 -0 0 0 0 0 0 0 0 0 0 0 0 -0 0 0 0 1 1 nan
nan 0 0 0 0 0 0 0 0 0 0 1 0 0 0 0 0 0 0 0 0 1 1 0 0 0 0 0 0 0 0 0 0 0 0 0 0 0 0 0 0 0 0 0 0 0 0 0 0 -0 0 0 0 0 0 0 0 0 -0 0 0 0 0 0 0 0 1 1 nan
nan 0 0 0 0 0 0 0 0 0 0 0 0 0 0 0 0 0 0 0 1 0 0 0 0 0 0 0 0 0 0 0 0 0 1 1 1 0 0 0 0 0 0 0 0 0 0 0 0 0 0 0 0 0 0 0 -0 -0 0 -0 0 0 0 0 0 0 0 1 nan
nan 0 0 0 0 0 0 0 0 0 0 0 0 0 0 0 0 0 0 0 0 0 0 0 0 0 0 0 0 0 0 0 0 0 0 0 1 0 0 0 0 0 0 0 0 0 0 0 0 0 0 0 -0 -0 -0 -0 -0 -0 0 0 -0 -0 -0 0 0 0 0 1 nan
nan 0 0 0 0 0 0 0 0 0 0 0 0 0 0 0 0 0 0 0 0 0 0 0 0 0 0 0 0 0 0 0 0 0 0 0 0 0 0 0 0 0 0 0 0 0 1 0 0 0 -0 -0 -0 -0 -0 -0 -0 -0 -0 -0 -0 -0 -0 -0 -0 0 1 1 nan
nan 0 0 0 0 0 -0 -0 -0 -0 -0 -0 0 0 0 0 0 0 0 0 0 0 0 0 0 0 0 0 0 0 0 0 0 0 0 0 0 0 0 0 0 0 0 0 1 1 0 0 0 -0 -0 -0 0 -0 -0 -0 -0 -0 -0 -0 -0 -0 -0 -0 0 0 1 1 nan
nan 0 0 0 0 -0 -0 -0 -0 -0 0 0 0 0 0 0 0 1 1 1 0 0 0 0 0 0 0 0 0 0 0 0 0 0 0 0 0 0 0 0 0 0 0 0 0 0 0 0 0 0 0 0 0 0 -0 -0 -0 -0 -0 -0 -0 0 0 0 0 0 1 1 nan
nan 0 -0 -0 -0 -0 -0 -0 0 0 0 0 0 1 1 1 1 0 0 1 0 0 0 0 0 0 0 0 0 0 0 0 0 1 0 0 0 0 0 0 0 0 0 0 0 0 0 0 0 0 0 0 0 0 0 -0 -0 -0 -0 -0 -0 0 0 0 0 1 1 1 nan
nan 0 0 0 -0 -0 0 0 0 0 0 0 1 1 1 1 0 0 0 0 0 0 0 0 0 0 0 -0 -0 0 0 0 1 1 0 1 1 1 0 0 0 0 0 0 0 0 0 0 0 0 0 0 0 0 -0 -0 -0 -0 -0 -0 -0 0 0 0 1 1 1 1 nan
nan 0 0 0 0 0 0 0 0 0 0 1 1 0 0 1 1 0 0 0 0 0 0 0 0 -0 -0 -0 0 0 0 1 1 1 1 1 1 0 0 -0 -0 0 0 0 0 0 0 0 0 0 0 0 -0 -0 -0 -0 -0 -0 -0 -0 -0 -0 0 1 1 1 1 1 nan
nan 0 0 0 0 0 0 0 0 0 0 1 0 -0 0 0 0 0 0 0 0 0 0 0 0 -0 -0 0 1 1 1 1 1 1 1 1 0 0 -0 0 0 1 1 1 1 0 0 0 0 0 0 0 0 -0 0 -0 -0 -0 -0 -0 -0 0 0 1 1 1 1 1 nan
nan 0 0 0 0 0 0 0 0 0 0 -0 -0 -0 -0 0 0 0 0 0 0 -0 -0 -0 -0 -0 0 1 1 0 0 0 0 1 1 1 0 0 0 1 1 1 1 0 0 0 0 0 -0 -0 -0 -0 -0 -0 -0 0 -0 -0 -0 -0 -0 0 0 1 1 1 1 1 nan
nan 0 0 0 0 0 0 0 0 0 -0 -1 -1 -0 -0 -0 -0 -0 -0 -0 -0 -0 -0 -0 0 0 1 1 0 0 0 0 0 1 1 0 0 0 1 1 1 1 0 0 0 0 0 0 0 0 -0 -0 -0 -0 -0 -0 0 0 -0 -0 0 0 0 0 1 1 1 1 nan
nan 0 0 0 0 0 0 -0 -0 -0 -0 -1 -1 -1 -0 -0 -0 -0 -0 -0 -0 -0 -0 -0 0 1 1 0 0 0 0 0 1 1 1 0 0 0 0 1 1 1 0 0 -0 0 0 0 0 0 -0 -0 -1 -0 -0 -0 0 0 0 0 0 0 0 0 1 1 1 1 nan
nan 0 -0 -0 -0 -0 -0 -0 -0 -0 -0 -1 -1 -1 -1 -1 -1 -1 -1 -1 -0 -0 -0 -0 0 0 0 0 0 1 1 1 1 1 0 0 -0 0 0 1 1 1 1 0 0 0 0 0 0 0 -0 -1 -1 -0 -0 -0 -0 0 0 0 0 0 0 1 1 1 1 1 nan
nan -0 -0 -0 -0 -0 -0 -0 -0 -0 -0 -0 -0 -0 -0 -0 -0 -0 -0 -0 -0 -0 -0 -0 0 0 0 0 1 1 0 0 0 0 0 0 0 0 0 1 1 1 1 0 0 0 0 0 0 0 -0 -0 -1 -0 -0 -0 0 0 0 0 0 0 1 1 1 1 1 0 nan
nan -0 -0 -0 -0 -0 -0 -0 -0 -0 -0 -0 0 0 0 0 0 -0 -0 -0 -0 -0 -0 0 0 0 0 0 0 0 0 0 0 -0 0 0 0 0 0 1 1 1 1 0 0 0 0 0 0 0 0 -0 -0 -0 -0 -0 0 0 0 0 0 1 1 1 1 0 0 0 nan
nan -0 -0 -0 -0 -0 -0 -0 -0 -0 -0 0 0 0 0 0 0 -0 -0 -0 -0 -0 -0 0 0 0 0 0 0 0 0 0 0 0 0 0 0 0 0 0 1 1 1 0 0 0 0 0 0 0 0 -0 -0 -0 -0 0 0 0 0 0 1 1 0 0 0 0 0 0 nan
nan -0 -0 -0 -0 -0 -0 -0 -0 -0 -0 0 0 0 0 -0 -0 -0 -0 -0 -0 -0 0 0 0 0 0 0 0 0 0 0 0 0 0 0 0 0 0 0 0 1 1 0 0 0 0 0 0 0 -0 -0 -0 -0 -0 0 0 0 0 0 0 0 0 0 0 0 0 0 nan
nan -0 -0 -0 -0 -0 -0 -0 0 -0 0 -0 -0 -0 -0 -0 -0 -0 -0 -0 0 0 0 0 1 1 0 0 0 0 0 0 0 0 0 0 0 0 0 0 0 0 0 0 0 0 0 0 0 0 -0 -0 -0 -0 0 0 0 0 0 0 0 0 0 0 -0 -0 -0 -0 nan
nan -0 -0 -0 -0 -0 0 0 0 0 -0 -0 -0 -0 -0 -0 -0 -0 0 0 0 0 0 1 1 0 0 0 0 0 0 0 0 0 0 0 0 0 0 0 0 0 0 0 0 0 0 0 0 -0 -0 -0 0 0 0 0 0 0 0 0 0 -0 -0 -0 -0 -0 -0 -0 nan
nan 0 0 0 0 0 0 0 0 -0 -0 -0 -0 -0 0 0 0 0 0 0 0 0 0 0 0 0 0 0 0 0 0 0 0 0 0 0 0 0 0 0 0 0 0 0 0 -0 0 -0 0 -0 -0 0 0 0 0 0 0 0 0 -0 -0 -0 -0 -0 -0 -0 -0 0 nan
nan 0 0 0 0 0 0 -0 -0 -0 0 0 0 0 0 0 0 0 0 0 0 0 0 0 0 0 0 0 0 0 0 0 0 0 0 0 0 0 0 0 0 0 0 -0 -0 -0 -0 0 0 0 0 0 0 0 0 0 0 0 -0 -0 -0 -0 -0 -0 -0 0 0 0 nan
nan 0 0 0 0 0 -0 -0 -0 0 0 0 0 0 0 0 0 0 0 0 0 0 0 0 0 0 0 0 0 0 0 0 0 0 0 0 0 -0 -0 -0 -0 -0 -0 -0 -0 -0 -0 0 0 0 0 0 0 0 0 0 0 -0 -0 -0 -0 -0 -0 0 0 0 0 0 nan
nan nan nan nan nan nan nan nan nan nan nan nan nan nan nan nan nan nan nan nan nan nan nan nan nan nan nan nan nan nan nan nan nan nan nan nan nan nan nan nan nan nan nan nan nan nan nan nan nan nan nan nan nan nan nan nan nan nan nan nan nan nan nan nan nan nan nan nan nan
Wind_Speed
28 28 29 29 30 30 30 29 29 28 26 24 23 22 21 19 18 17 15 13 11 11 10 10 11 11 12 12 13 13 14 16 17 19 21 23 24 24 25 26 27 28 30 31 32 32 30 28 27 28 29 29 29 28 28 28 28 28 28 28 28 29 30 32 35 37 38 38 37
28 28 29 30 30 30 29 29 28 27 25 24 22 21 20 19 18 16 14 12 11 10 10 10 10 10 10 11 11 12 13 14 15 16 18 20 21 22 22 23 24 26 28 30 30 29 27 26 26 28 29 29 28 27 27 27 27 27 27 27 27 29 31 33 35 36 37 36 36
28 28 29 29 29 29 28 28 26 25 23 22 21 20 19 18 17 15 14 12 11 11 10 10 10 9 9 9 10 11 11 12 13 14 16 17 18 19 19 20 21 23 24 25 25 25 26 27 29 29 28 27 26 27 28 28 28 27 25 25 26 28 31 33 35 35 35 35 35
28 28 28 28 28 28 27 26 24 22 21 20 20 19 18 17 16 15 14 12 11 10 10 9 9 8 8 8 9 9 10 11 11 12 14 15 15 16 16 17 18 19 19 20 22 24 27 29 29 28 27 26 26 28 30 32 30 28 25 24 26 28 31 33 34 33 33 32 33
28 28 28 28 27 27 25 24 21 20 19 19 19 18 18 17 16 15 13 12 10 10 9 9 8 8 8 8 9 9 9 10 10 11 12 13 13 13 14 14 15 15 16 17 20 23 25 26 25 25 26 27 28 30 32 32 30 27 24 24 27 30 32 33 33 31 31 31 32
27 27 27 27 26 25 24 22 20 18 18 18 18 17 17 15 14 13 12 10 10 9 9 9 9 9 10 10 9 9 9 9 10 10 11 12 12 12 12 13 13 13 13 15 17 18 20 20 21 23 26 28 30 30 30 28 25 23 24 26 29 30 31 31 30 29 29 30 31
27 27 26 26 25 24 22 20 19 18 18 18 17 16 15 13 12 11 10 10 9 9 10 10 10 10 11 11 10 10 9 9 9 10 10 11 11 12 13 13 13 13 13 13 13 14 14 15 17 21 23 24 24 23 22 21 21 22 25 27 27 27 27 27 27 27 27 28 29
25 25 25 25 24 23 21 19 18 18 18 17 16 14 13 12 11 10 9 9 9 9 9 10 10 10 11 11 11 10 9 9 9 9 10 10 11 12 13 13 13 13 13 13 13 12 12 12 13 15 16 16 17 18 19 20 22 23 24 23 22 22 23 25 26 26 27 27 28
24 24 24 24 23 22 20 18 17 17 16 15 14 12 11 10 10 9 10 9 9 9 9 9 9 10 11 11 10 9 9 10 10 10 9 9 10 11 11 11 11 12 12 13 14 13 11 10 9 9 10 11 13 15 18 20 21 23 23 24 24 24 25 25 25 26 26 26 27
23 23 23 23 22 21 19 18 17 16 15 14 13 12 11 10 10 10 10 10 10 10 10 9 10 10 9 9 9 9 10 11 11 11 10 9 8 8 8 9 9 11 12 12 12 11 11 10 9 9 10 12 13 14 16 17 19 20 22 23 23 24 24 24 24 25 26 26 27
22 22 23 23 21 20 19 18 17 16 15 14 13 12 11 11 10 10 10 10 10 10 10 10 10 10 9 9 10 11 12 12 12 11 10 9 9 8 9 9 11 11 11 10 9 9 10 11 11 12 13 14 14 14 14 14 14 15 17 18 19 20 21 22 23 24 25 26 26
22 22 22 21 20 19 19 18 17 17 16 15 14 13 12 11 11 11 11 11 11 11 11 11 11 10 9 10 11 12 12 11 10 10 9 10 10 11 11 12 13 13 11 10 10 10 11 13 15 16 17 17 17 16 15 15 14 14 15 15 16 18 19 21 22 23 24 24 25
22 22 21 20 19 18 18 18 17 17 17 16 15 13 12 11 11 12 12 12 12 13 13 12 11 10 10 11 12 11 10 8 8 8 9 10 11 11 12 13 13 13 13 12 13 14 15 17 18 19 19 18 18 18 17 17 16 16 16 16 16 17 18 19 20 20 21 21 22
22 21 20 20 19 18 18 18 17 17 17 16 15 13 12 12 12 12 13 13 13 14 13 12 11 11 11 12 11 10 8 7 8 9 10 10 10 10 11 12 12 13 13 14 15 16 17 18 19 19 18 18 18 18 17 17 17 17 17 17 17 17 18 18 19 19 18 18 19
22 21 20 20 19 19 18 18 18 17 17 16 15 14 13 13 13 13 14 14 14 14 14 13 12 12 12 11 10 9 9 9 10 11 11 11 11 10 10 11 12 13 14 15 16 18 18 18 18 18 18 18 18 17 17 17 17 17 17 18 18 19 19 19 19 19 18 18 18
22 21 21 20 20 19 19 18 18 17 16 16 15 15 15 14 14 14 15 15 15 15 14 13 12 12 11 10 10 10 11 12 12 13 13 13 12 12 11 10 11 12 14 16 17 18 19 19 19 19 19 19 18 18 17 17 16 16 17 17 18 18 19 20 20 20 19 19 19
22 22 21 21 20 20 19 19 18 17 17 16 15 15 15 15 16 16 16 16 16 15 14 14 13 12 10 10 10 11 12 14 14 15 15 14 14 12 11 10 11 12 14 15 17 17 18 18 18 19 19 19 18 18 18 18 18 18 17 17 17 17 17 19 20 20 20 20 20
23 22 22 21 21 20 19 19 18 17 17 16 16 15 15 16 16 17 17 17 16 15 14 13 13 12 11 11 11 12 13 14 15 15 15 15 14 13 12 11 12 13 13 14 14 15 15 16 17 18 18 19 19 19 20 20 20 21 20 19 18 18 17 17 18 19 20 21 21
23 23 22 22 21 20 19 19 18 17 17 16 16 16 16 16 17 17 18 17 16 14 12 12 12 13 13 13 12 12 12 12 13 13 14 14 14 14 13 13 13 13 13 13 13 13 15 16 17 18 19 20 20 21 22 22 23 23 23 23 22 21 20 20 20 20 20 21 21
23 23 22 22 21 20 19 19 18 18 17 17 17 16 16 17 17 18 18 17 15 13 12 12 13 14 15 15 13 11 10 10 11 12 13 14 15 15 15 15 15 14 14 13 14 15 16 18 19 20 21 22 22 23 23 23 23 24 24 25 25 25 24 24 23 23 22 22 22
23 23 22 22 21 21 20 20 19 19 18 18 18 17 17 17 18 18 17 16 14 13 13 14 15 15 16 16 14 12 11 11 11 12 13 14 15 15 15 15 15 15 15 16 17 18 19 20 21 21 21 21 21 21 21 21 22 23 23 24 24 24 24 24 24 24 23 23 23
23 22 22 22 22 21 21 21 21 20 20 20 19 19 18 18 18 18 17 16 15 14 14 15 16 16 16 15 14 13 13 13 13 14 13 13 13 14 14 15 15 16 17 18 19 19 19 19 18 18 17 17 17 18 19 20 20 21 21 22 22 21 21 21 21 22 22 21 21
23 23 23 23 23 23 23 23 22 22 22 21 21 20 19 19 19 18 18 17 16 16 16 17 17 17 16 15 14 14 14 14 15 15 14 13 13 13 13 14 15 16 18 19 19 18 17 15 14 14 14 15 16 17 18 19 19 19 20 20 19 19 19 18 19 19 19 19 19
23 24 24 24 24 24 24 24 24 23 23 22 22 21 21 20 19 19 18 19 18 17 17 17 17 16 15 14 14 14 14 15 15 15 15 14 14 14 14 15 16 17 18 18 17 15 14 13 14 15 16 17 17 17 17 17 17 17 17 17 17 16 16 16 17 17 17 17 17
24 24 25 25 25 25 25 25 25 24 24 24 23 22 22 21 20 19 19 19 19 18 18 17 16 15 15 14 14 14 14 15 15 15 16 16 16 16 16 16 17 17 16 16 15 15 15 16 17 18 19 18 17 17 16 16 16 16 16 15 15 14 14 15 16 16 16 15 15
25 25 25 25 26 26 26 26 26 26 25 25 24 24 23 23 21 20 20 20 19 19 18 17 16 15 15 15 15 15 15 15 16 16 16 16 16 17 17 17 16 16 16 16 16 17 17 18 18 18 18 17 16 16 15 15 16 16 16 15 14 13 13 14 14 15 15 14 13
25 26 26 27 27 27 27 27 27 26 26 26 26 25 25 24 23 21 21 20 20 19 18 17 16 15 16 16 15 15 16 17 17 17 17 16 17 17 17 16 16 15 16 16 16 16 16 16 15 15 15 15 15 14 14 14 15 15 15 15 14 13 13 13 13 14 14 13 12
27 27 27 28 28 28 28 28 28 27 27 27 27 26 26 25 24 22 21 21 21 20 19 18 17 17 16 16 16 16 17 17 17 17 17 17 17 17 17 16 16 15 15 15 15 15 15 14 15 15 15 15 14 14 13 13 13 14 14 14 13 13 12 12 13 13 12 12 12
28 28 28 29 29 29 28 28 28 27 27 27 27 27 26 25 24 23 22 22 21 21 20 19 18 18 18 17 17 17 18 18 18 18 17 17 18 18 17 16 16 16 16 16 16 16 16 16 16 16 16 15 15 14 13 12 12 13 13 13 13 12 12 12 13 12 12 12 12
28 29 29 29 29 29 28 28 28 27 27 27 26 26 25 24 24 23 22 21 21 20 20 19 19 19 18 18 18 19 19 18 18 17 17 17 18 18 18 18 18 17 17 17 17 17 17 16 16 15 15 14 14 13 12 12 12 12 12 13 12 12 12 12 12 12 12 11 11
28 29 29 29 29 28 28 28 27 27 26 25 24 23 23 23 22 22 21 21 20 20 19 19 19 19 19 19 19 19 18 18 17 16 16 17 18 18 19 19 18 18 18 18 17 16 15 14 14 13 13 13 12 12 12 11 11 11 12 12 12 12 12 12 12 12 11 11 11
28 28 28 28 28 28 27 27 26 25 24 23 22 21 21 21 20 20 21 21 21 20 20 19 19 19 19 19 19 18 17 17 16 16 17 18 18 18 19 18 18 17 17 16 16 15 14 13 12 12 11 11 11 11 11 11 11 11 11 11 11 11 11 11 11 11 11 11 12
27 27 27 27 27 26 26 25 24 23 22 21 20 20 20 19 19 20 20 21 21 20 20 19 19 18 18 18 17 17 17 17 17 17 18 18 18 18 18 17 17 16 15 15 14 14 13 12 11 11 10 10 10 10 10 10 10 10 10 10 10 10 11 11 11 11 12 12 13
26 26 26 26 26 25 25 24 23 22 21 20 20 20 19 19 19 20 20 20 20 20 20 19 18 18 17 17 16 16 16 16 16 17 17 17 17 16 15 15 14 14 13 13 13 13 12 11 11 10 9 9 9 9 10 10 9 9 9 9 10 10 10 11 11 12 12 13 13
25 25 25 25 24 24 23 23 22 21 21 20 20 20 20 19 19 19 19 19 19 19 18 18 17 17 16 16 15 15 15 15 15 15 15 15 14 13 12 12 11 11 11 11 11 11 11 10 9 8 7 8 8 9 9 9 9 9 9 9 10 10 10 11 11 12 13 13 14
24 24 23 23 23 22 22 21 21 20 20 20 20 20 19 19 19 18 18 17 17 17 16 16 15 15 15 14 14 14 14 14 14 13 13 13 12 11 11 10 10 9 9 9 9 9 9 8 8 7 6 7 7 8 8 8 8 8 9 9 10 11 11 11 12 12 13 14 14
22 22 22 21 21 21 21 20 20 20 19 19 19 19 18 18 17 17 16 16 15 15 14 14 14 14 13 13 13 13 12 12 12 11 11 10 10 9 9 8 8 8 7 7 7 7 7 6 6 5 5 6 7 7 7 7 7 8 9 9 10 11 11 12 12 13 14 14 15
21 20 20 20 20 20 19 19 19 19 18 18 18 17 17 16 16 15 15 14 14 13 13 13 12 12 12 11 11 10 10 10 9 9 8 7 7 6 6 6 6 5 5 5 5 5 4 4 4 4 5 6 6 6 7 7 7 8 9 10 11 12 12 13 13 14 14 15 15
20 19 19 18 18 18 18 18 18 17 17 17 16 16 15 15 14 13 13 12 12 12 11 11 10 10 9 9 8 8 7 6 6 5 5 4 4 3 3 3 3 3 3 3 3 3 3 3 3 4 4 5 6 6 7 7 8 9 10 11 12 13 13 13 13 14 14 14 14
19 19 18 18 17 17 17 17 17 16 16 15 15 14 13 13 12 11 11 10 10 9 9 9 8 7 7 6 5 5 4 4 3 2 1 1 1 0 1 1 1 2 2 2 2 2 2 2 3 3 4 5 5 6 7 7 8 9 10 11 11 12 12 13 12 12 12 12 12
19 19 18 18 17 16 16 16 15 15 14 14 13 12 11 11 10 10 9 9 8 8 7 7 6 6 5 4 4 3 3 3 3 2 2 2 2 2 2 2 2 2 2 2 2 2 2 2 3 3 4 5 5 6 6 7 7 8 9 9 10 10 10 10 10 10 10 10 10
Wind_Direction
215 216 216 218 220 222 224 226 228 231 234 235 236 237 239 240 242 244 246 245 243 240 236 233 231 230 229 228 229 229 230 231 232 233 234 236 237 239 240 241 242 242 243 243 243 243 244 245 247 248 248 246 245 246 248 250 253 255 256 258 261 263 266 268 270 270 269 267 266
213 215 217 219 222 224 225 227 229 232 234 236 238 239 241 243 243 245 246 245 242 240 237 235 231 231 232 231 230 230 231 231 232 234 235 237 239 240 242 243 244 246 247 248 249 249 249 248 249 250 252 253 252 252 251 251 251 253 255 259 262 266 269 270 271 271 270 268 266
212 215 217 220 223 224 224 226 228 230 233 235 237 239 242 244 244 244 245 244 240 237 237 236 234 234 235 234 230 229 229 229 231 232 235 237 239 240 242 244 246 247 249 251 252 251 249 248 248 250 253 254 255 254 252 251 250 251 255 261 266 270 272 273 274 273 272 269 265
212 214 216 220 222 224 225 227 229 231 233 235 236 238 239 241 241 241 241 239 237 233 231 232 235 235 232 227 225 224 225 227 229 231 233 235 237 239 241 243 245 247 248 249 250 250 250 250 250 249 249 249 250 252 253 252 252 253 257 263 268 271 273 274 275 275 273 269 264
212 214 216 220 223 226 228 230 230 231 233 234 236 237 238 239 239 239 239 236 230 224 222 227 230 229 224 219 218 221 224 228 232 234 236 236 236 237 239 243 246 249 250 251 253 255 256 255 252 247 246 247 251 254 257 258 257 256 257 262 267 270 273 274 276 276 274 269 263
211 213 216 220 224 227 229 231 231 231 232 234 235 235 236 237 237 237 235 227 221 219 221 225 226 223 219 215 216 220 224 229 234 238 240 240 239 238 239 242 248 251 253 256 262 266 267 264 256 250 249 252 257 261 264 265 262 260 260 264 269 272 275 276 277 276 274 270 263
211 213 215 219 223 226 228 229 230 230 232 233 233 233 234 234 233 231 225 217 217 220 223 224 223 218 213 211 213 218 224 229 234 240 243 243 239 237 236 239 242 246 251 258 268 276 280 277 269 263 259 259 262 265 266 265 263 265 267 271 273 275 277 277 276 275 273 270 265
212 213 215 218 222 225 227 228 228 229 230 231 231 231 232 232 229 222 215 213 216 219 221 222 220 213 206 204 208 216 224 229 233 237 241 241 238 234 233 233 235 239 245 254 264 271 275 276 278 278 276 273 271 269 267 266 266 268 270 271 271 272 273 274 274 273 272 270 267
211 213 215 218 222 224 226 226 227 227 228 229 229 229 229 228 222 213 209 210 213 215 216 215 212 205 201 201 207 217 224 227 229 231 232 235 239 240 239 237 235 237 243 249 255 258 259 262 271 281 286 285 281 276 272 269 268 267 267 267 268 270 272 272 272 272 271 270 267
209 210 213 216 220 222 224 225 225 226 227 228 227 227 225 219 211 206 206 208 210 210 208 205 201 200 202 207 214 220 222 223 224 224 224 227 235 246 249 244 238 239 244 248 249 250 251 256 263 269 271 273 275 276 275 272 270 269 269 271 274 275 275 274 272 271 270 269 266
208 209 211 214 216 219 221 223 223 224 225 226 226 225 220 211 205 203 205 206 206 204 201 197 198 202 210 219 222 222 221 220 219 218 217 218 224 231 233 229 227 230 238 245 244 243 246 251 255 256 257 259 262 266 269 270 269 269 271 274 276 277 276 275 273 271 270 269 266
207 208 210 212 214 216 218 220 221 223 223 223 223 220 213 206 203 204 205 204 200 197 197 198 202 209 218 223 223 222 221 220 218 214 211 212 218 223 225 224 223 225 229 234 234 236 238 242 245 246 249 252 255 259 262 263 262 263 264 267 270 272 273 273 272 272 271 269 266
205 207 208 210 211 212 215 218 219 220 221 221 218 212 206 203 203 203 202 199 194 194 198 202 208 214 220 221 220 218 216 216 211 205 203 208 217 226 232 232 231 230 230 231 234 236 238 241 243 244 246 249 252 257 260 263 263 261 259 260 262 264 265 267 269 271 272 271 269
203 204 205 206 207 209 212 215 216 217 218 217 212 207 203 202 203 202 199 194 190 193 198 205 211 216 218 218 214 209 206 203 199 197 198 204 214 226 233 235 234 233 233 235 238 240 242 244 245 246 246 248 252 256 261 266 268 266 261 257 255 254 255 258 261 265 268 270 271
201 201 202 203 204 206 209 211 212 213 213 212 207 203 202 202 202 200 195 190 189 192 199 206 212 215 215 211 205 202 201 202 201 201 202 205 211 217 222 225 229 232 236 239 242 244 244 245 247 248 248 250 252 256 262 268 273 274 269 262 255 251 249 250 253 256 260 264 266
198 198 198 199 200 203 205 208 208 208 207 205 203 200 199 200 199 197 192 188 189 194 200 207 211 212 208 202 199 200 203 206 208 209 210 211 213 213 213 217 225 233 240 244 246 247 248 248 249 250 251 252 254 257 261 266 273 279 280 276 267 259 253 249 249 250 252 254 258
195 195 195 196 197 199 201 203 204 203 201 199 198 197 197 197 195 193 190 189 192 198 203 207 208 206 201 196 195 198 203 206 210 213 215 216 217 215 215 218 226 234 239 242 246 248 249 249 249 250 252 254 256 258 261 264 268 274 280 284 283 277 268 260 255 252 251 251 253
192 192 192 193 194 195 197 198 198 197 196 195 194 194 194 193 191 190 190 192 197 202 204 201 199 198 197 197 196 196 198 202 207 211 215 217 218 219 221 225 229 231 232 233 237 241 243 246 247 250 251 254 256 258 261 262 265 267 271 277 282 285 284 279 273 266 261 257 256
189 189 189 190 191 191 192 192 192 192 191 191 190 190 190 188 187 187 190 195 201 203 198 191 190 193 197 200 199 195 193 195 202 208 214 218 221 223 225 227 229 229 228 228 232 237 241 245 248 250 253 255 257 260 262 263 265 266 267 270 274 279 283 285 285 282 276 269 263
187 187 187 187 187 187 187 187 186 186 185 184 184 185 185 184 184 186 191 196 200 197 190 185 187 192 198 202 203 200 196 197 203 209 214 217 219 221 222 224 226 229 232 236 241 245 248 250 252 254 256 258 260 262 264 266 267 268 268 270 271 274 276 279 282 283 282 277 270
185 184 184 184 184 183 183 182 182 180 179 178 179 180 180 180 182 185 189 192 192 189 186 185 187 191 196 201 203 205 206 208 212 213 213 212 212 213 216 219 225 232 239 245 249 251 252 252 252 253 255 258 261 265 268 271 272 273 272 272 272 273 274 275 277 278 278 276 272
182 182 181 181 181 180 180 179 178 177 175 175 176 177 177 178 180 183 185 186 185 185 185 186 188 190 193 196 199 204 209 214 216 216 213 210 209 210 215 221 229 237 243 247 248 248 247 246 246 248 252 257 264 270 275 278 280 279 278 276 275 275 275 275 276 276 276 274 270
179 179 179 179 179 178 177 176 175 174 173 173 174 175 175 176 179 180 182 184 184 184 185 187 188 190 191 193 196 202 208 213 214 215 214 214 216 220 225 232 237 240 242 242 242 241 240 241 244 250 257 264 271 277 281 284 284 281 278 276 275 275 276 277 278 277 276 272 268
178 178 177 177 177 176 175 174 173 173 173 173 174 174 175 177 178 179 180 183 184 186 187 188 189 189 190 193 198 204 208 210 212 214 219 223 227 231 236 240 242 241 239 237 237 238 242 251 260 266 270 272 275 278 282 284 285 283 280 276 274 275 278 281 281 279 275 270 266
177 176 176 175 174 174 173 172 172 172 173 173 174 175 176 177 178 178 180 182 185 188 189 189 188 188 190 195 202 206 208 210 212 218 223 228 231 234 237 239 240 240 239 239 242 248 256 264 269 273 274 274 275 276 278 282 287 289 287 283 279 279 281 284 283 281 275 269 264
175 174 174 173 172 172 172 172 172 173 174 175 176 177 177 178 178 179 181 183 186 188 189 187 185 188 194 201 204 205 206 210 214 219 223 227 230 232 234 236 238 239 241 245 250 256 262 266 270 272 272 272 272 272 275 279 284 287 288 286 283 281 281 281 280 279 274 267 260
173 172 172 172 172 172 172 173 173 174 176 178 179 179 179 179 179 180 182 184 186 187 186 184 186 194 202 205 203 201 202 207 213 218 222 224 227 231 236 239 240 241 243 247 251 256 260 264 268 271 272 272 273 273 275 278 283 285 285 282 279 278 276 275 274 271 267 258 251
172 171 171 172 172 172 173 174 175 176 179 181 181 181 181 181 181 182 184 186 188 188 186 186 192 200 206 206 202 201 204 209 214 219 222 225 228 233 238 244 247 247 248 250 253 257 261 266 271 274 277 277 277 277 278 280 283 284 283 279 276 275 274 272 269 265 256 244 235
172 172 172 172 173 174 174 176 177 179 182 184 185 184 183 183 184 186 188 190 191 190 189 191 199 205 208 208 208 210 214 218 222 224 226 228 231 235 240 243 247 251 253 256 259 264 269 274 278 280 281 279 278 277 278 281 285 285 283 280 277 275 273 270 265 257 246 233 222
173 173 173 173 174 175 176 178 180 183 185 187 188 187 187 187 188 190 192 193 192 192 194 199 204 208 210 213 217 221 225 228 230 231 231 233 235 238 242 247 252 256 259 263 267 272 278 283 286 287 284 281 278 277 278 282 286 287 284 280 277 274 269 263 256 247 235 224 215
174 174 174 175 176 177 179 181 183 185 187 190 190 190 190 191 191 192 194 194 194 196 200 205 208 211 215 220 224 227 230 232 232 232 232 234 237 241 245 250 256 261 266 270 274 279 284 289 292 291 287 282 278 277 280 285 288 288 285 280 275 270 262 254 246 236 226 217 213
175 175 176 177 178 179 181 183 185 187 189 190 191 192 192 192 193 194 194 195 196 199 205 210 212 215 219 224 227 229 231 231 231 230 231 234 238 243 247 252 258 263 269 273 277 281 288 293 295 293 288 283 279 280 283 288 289 287 283 277 270 262 253 245 236 226 218 213 212
177 177 178 179 180 181 183 185 186 188 189 190 191 192 192 193 194 195 196 197 199 203 208 213 215 218 221 225 228 230 231 233 233 233 234 237 242 247 252 255 260 264 268 272 275 281 287 294 297 294 288 282 280 283 286 289 287 283 277 269 260 251 243 235 227 220 216 214 216
178 179 180 181 182 183 185 186 187 189 190 190 191 192 193 194 196 197 199 201 204 207 212 216 219 222 225 229 231 233 235 238 241 243 246 249 253 259 263 266 267 268 270 272 275 280 287 294 297 295 289 283 281 284 285 285 282 277 268 257 247 239 233 228 224 221 221 221 223
180 181 181 183 184 185 186 187 189 190 191 191 192 193 194 196 198 200 203 206 209 212 215 219 222 226 229 233 236 238 240 243 247 252 257 263 268 274 278 281 281 279 276 276 278 282 288 294 298 296 290 283 281 282 282 280 276 268 258 246 235 228 224 224 224 226 227 229 230
181 182 183 184 185 186 187 189 190 191 192 194 194 195 197 199 201 204 207 210 213 215 217 220 224 227 229 232 236 240 243 246 251 257 263 271 277 282 286 290 292 291 287 283 282 285 290 297 300 297 289 281 279 278 277 273 267 258 247 236 227 223 222 224 227 230 232 234 234
182 183 185 185 186 187 188 190 191 193 194 196 197 198 200 201 203 205 208 212 214 216 218 221 224 227 230 234 237 241 246 251 255 260 266 273 280 286 289 292 296 297 295 292 290 291 296 302 303 295 283 275 272 271 268 262 254 245 236 229 224 224 225 228 230 233 234 235 234
181 183 184 186 186 187 188 190 192 194 195 196 198 199 201 203 204 205 208 211 214 216 219 222 225 229 233 237 241 245 250 254 259 264 270 276 283 289 292 294 298 301 302 301 301 304 308 310 301 284 272 265 263 260 255 248 241 234 228 225 224 225 228 230 232 233 234 234 234
179 181 183 185 186 186 188 189 191 193 194 195 196 198 199 201 203 204 207 210 213 216 219 222 225 229 233 237 240 244 248 252 258 265 272 277 284 293 299 302 309 316 318 318 322 327 326 316 289 269 259 254 249 246 242 237 231 227 225 223 224 226 229 231 233 234 234 235 235
177 178 180 183 184 185 186 187 188 189 191 192 193 195 196 197 199 201 203 207 209 212 214 217 219 222 224 226 229 231 233 234 236 240 244 251 254 324 31 29 18 10 2 356 353 347 334 305 273 256 248 242 238 235 234 231 228 226 225 225 227 229 231 235 237 238 239 241 243
174 175 177 179 181 183 184 184 183 184 185 187 189 189 189 190 191 193 196 198 200 200 201 201 201 201 200 199 197 196 192 183 167 152 139 125 117 108 96 84 66 45 25 16 3 353 326 283 256 245 238 233 231 231 231 231 229 229 230 232 233 235 238 242 245 248 250 253 256
Height
1473 1474 1475 1476 1477 1478 1479 1480 1481 1483 1484 1485 1487 1488 1489 1490 1491 1493 1494 1495 1496 1497 1498 1499 1500 1501 1501 1502 1503 1504 1505 1505 1506 1507 1508 1509 1509 1510 1510 1511 1512 1512 1513 1513 1513 1514 1514 1515 1516 1517 1517 1517 1518 1519 1519 1520 1520 1520 1520 1521 1521 1521 1521 1521 1521 1520 1520 1520 1520
1471 1473 1474 1475 1475 1476 1478 1479 1480 1481 1483 1484 1485 1487 1488 1489 1490 1491 1493 1494 1495 1496 1497 1498 1499 1500 1500 1501 1502 1503 1504 1504 1505 1506 1506 1507 1508 1508 1509 1510 1510 1511 1511 1511 1511 1512 1513 1515 1515 1515 1515 1515 1516 1517 1517 1518 1518 1519 1519 1519 1519 1519 1519 1519 1519 1518 1518 1518 1518
1470 1471 1472 1473 1474 1475 1476 1477 1479 1480 1482 1483 1485 1486 1487 1488 1490 1490 1492 1493 1494 1495 1496 1496 1497 1498 1499 1500 1501 1501 1502 1503 1504 1504 1505 1505 1506 1507 1507 1508 1509 1509 1510 1510 1510 1511 1512 1513 1513 1514 1514 1515 1515 1515 1516 1516 1516 1517 1517 1517 1518 1517 1517 1517 1517 1516 1516 1516 1516
1469 1470 1471 1472 1472 1474 1475 1476 1477 1479 1481 1482 1484 1485 1486 1487 1488 1490 1491 1492 1493 1494 1495 1495 1496 1497 1498 1499 1499 1500 1501 1501 1502 1503 1503 1504 1504 1505 1505 1506 1507 1507 1508 1509 1510 1510 1510 1510 1511 1511 1512 1513 1513 1513 1514 1514 1514 1515 1515 1515 1515 1515 1515 1515 1515 1514 1514 1514 1514
1468 1469 1470 1470 1471 1472 1474 1475 1477 1478 1480 1481 1483 1484 1485 1486 1487 1489 1490 1491 1492 1493 1494 1495 1495 1496 1496 1497 1498 1499 1500 1500 1501 1501 1502 1502 1503 1503 1504 1505 1505 1506 1506 1507 1508 1508 1508 1508 1509 1510 1510 1510 1511 1511 1511 1511 1512 1513 1513 1514 1514 1514 1513 1513 1513 1513 1513 1513 1513
1466 1467 1469 1470 1470 1472 1473 1475 1476 1478 1479 1480 1481 1483 1484 1485 1486 1487 1489 1490 1491 1492 1493 1494 1494 1495 1495 1496 1497 1498 1498 1499 1500 1500 1500 1501 1501 1502 1503 1503 1504 1504 1505 1505 1506 1506 1506 1506 1507 1508 1509 1509 1510 1510 1510 1510 1510 1511 1512 1512 1512 1512 1511 1511 1511 1511 1511 1511 1511
1465 1466 1467 1469 1470 1471 1472 1474 1475 1476 1478 1479 1480 1482 1483 1484 1485 1486 1488 1489 1490 1491 1491 1492 1493 1494 1495 1495 1496 1497 1497 1498 1498 1499 1499 1500 1500 1501 1502 1502 1503 1503 1504 1504 1504 1504 1504 1505 1506 1506 1507 1507 1507 1508 1508 1508 1509 1510 1510 1510 1510 1510 1510 1510 1510 1510 1510 1510 1510
1464 1465 1466 1468 1469 1470 1471 1473 1474 1475 1477 1478 1480 1481 1482 1483 1485 1485 1487 1488 1489 1490 1490 1491 1492 1493 1493 1494 1495 1496 1496 1497 1497 1498 1498 1499 1499 1500 1501 1501 1502 1502 1503 1503 1503 1503 1503 1504 1504 1504 1505 1505 1505 1506 1506 1507 1507 1508 1508 1508 1508 1508 1508 1508 1508 1508 1508 1508 1508
1463 1464 1465 1467 1468 1469 1470 1472 1473 1475 1476 1477 1479 1480 1481 1482 1484 1485 1486 1487 1488 1489 1490 1490 1491 1491 1492 1493 1494 1495 1495 1496 1496 1497 1497 1498 1498 1499 1499 1500 1500 1501 1502 1502 1502 1502 1502 1503 1503 1503 1503 1503 1504 1505 1505 1505 1505 1506 1506 1506 1506 1506 1506 1506 1506 1506 1506 1506 1506
1461 1463 1464 1465 1467 1468 1470 1471 1472 1474 1475 1476 1478 1479 1480 1481 1482 1484 1485 1486 1487 1488 1488 1489 1490 1491 1491 1492 1493 1494 1494 1495 1495 1496 1496 1497 1497 1497 1498 1498 1499 1500 1500 1501 1501 1501 1501 1501 1501 1502 1502 1502 1503 1503 1503 1503 1504 1504 1504 1504 1504 1504 1504 1504 1504 1505 1505 1505 1504
1460 1461 1463 1464 1465 1467 1469 1470 1471 1473 1474 1476 1477 1478 1479 1480 1482 1483 1484 1485 1486 1487 1487 1488 1489 1490 1491 1491 1492 1492 1493 1494 1495 1495 1495 1496 1496 1496 1497 1497 1498 1498 1499 1499 1500 1500 1500 1500 1500 1500 1500 1501 1501 1501 1501 1501 1501 1501 1501 1501 1502 1502 1502 1502 1502 1502 1502 1502 1502
1459 1460 1462 1463 1465 1466 1468 1469 1470 1472 1473 1475 1476 1477 1478 1480 1481 1482 1483 1484 1485 1486 1487 1487 1488 1489 1490 1490 1491 1491 1492 1493 1493 1494 1494 1495 1495 1495 1496 1496 1497 1497 1497 1498 1498 1498 1499 1499 1499 1499 1499 1500 1500 1500 1500 1500 1500 1500 1499 1499 1499 1500 1500 1500 1500 1500 1500 1500 1500
1458 1460 1461 1462 1464 1465 1467 1468 1470 1471 1472 1474 1475 1476 1477 1479 1480 1481 1482 1483 1484 1485 1485 1486 1487 1488 1489 1489 1490 1490 1491 1491 1492 1492 1493 1494 1494 1495 1495 1496 1496 1496 1497 1497 1497 1497 1498 1498 1498 1498 1498 1498 1498 1498 1498 1498 1498 1498 1498 1498 1498 1498 1498 1499 1499 1499 1499 1499 1499
1457 1459 1460 1461 1463 1465 1466 1467 1469 1470 1471 1473 1474 1475 1477 1478 1479 1480 1480 1481 1483 1484 1485 1485 1486 1487 1488 1488 1489 1489 1490 1490 1491 1491 1492 1493 1494 1494 1495 1495 1495 1495 1496 1496 1496 1497 1497 1497 1497 1497 1497 1497 1497 1497 1497 1497 1497 1497 1496 1496 1496 1496 1496 1497 1497 1497 1497 1497 1497
1456 1458 1459 1460 1462 1463 1465 1466 1468 1469 1470 1472 1473 1475 1476 1477 1478 1479 1480 1480 1482 1483 1484 1485 1485 1486 1487 1487 1488 1488 1489 1490 1490 1491 1491 1492 1493 1493 1494 1494 1495 1495 1495 1495 1495 1496 1496 1496 1496 1496 1496 1496 1495 1495 1496 1496 1496 1496 1496 1495 1495 1495 1495 1495 1495 1495 1495 1495 1495
1455 1457 1458 1460 1461 1462 1464 1465 1467 1468 1470 1471 1472 1474 1475 1476 1477 1478 1479 1480 1481 1482 1483 1484 1485 1485 1486 1486 1487 1487 1488 1489 1489 1490 1490 1491 1492 1492 1493 1493 1493 1494 1494 1494 1495 1495 1495 1495 1495 1495 1495 1495 1495 1495 1495 1495 1495 1495 1495 1495 1495 1494 1494 1494 1494 1494 1494 1494 1494
1454 1456 1457 1459 1460 1461 1463 1464 1466 1467 1469 1470 1471 1472 1474 1475 1476 1477 1478 1479 1480 1481 1482 1483 1484 1484 1485 1485 1486 1487 1487 1488 1489 1489 1490 1490 1491 1491 1491 1492 1492 1493 1493 1493 1493 1494 1494 1494 1494 1494 1494 1494 1494 1494 1494 1494 1494 1494 1494 1494 1494 1494 1493 1493 1493 1492 1492 1492 1492
1453 1455 1456 1458 1459 1460 1462 1464 1465 1466 1468 1469 1470 1472 1473 1474 1475 1476 1478 1479 1480 1480 1481 1482 1483 1483 1484 1485 1485 1486 1486 1487 1488 1489 1489 1490 1490 1490 1491 1491 1492 1492 1492 1492 1492 1492 1493 1493 1493 1493 1493 1492 1492 1492 1492 1492 1493 1493 1493 1493 1493 1493 1493 1492 1492 1492 1491 1491 1490
1452 1454 1455 1457 1458 1460 1461 1463 1464 1466 1467 1468 1470 1471 1472 1473 1475 1476 1477 1478 1479 1480 1480 1481 1482 1482 1483 1484 1485 1485 1486 1487 1487 1488 1488 1489 1489 1490 1490 1490 1491 1491 1491 1491 1491 1491 1491 1491 1491 1491 1491 1491 1491 1491 1491 1491 1491 1492 1492 1492 1492 1492 1492 1492 1491 1491 1490 1490 1490
1452 1453 1455 1456 1458 1459 1461 1462 1464 1465 1466 1468 1469 1470 1471 1472 1474 1475 1476 1477 1478 1479 1479 1480 1481 1482 1482 1483 1484 1485 1485 1486 1487 1487 1488 1488 1488 1489 1489 1490 1490 1490 1490 1490 1490 1490 1490 1490 1490 1490 1490 1490 1490 1490 1490 1490 1490 1490 1491 1491 1491 1491 1491 1490 1490 1490 1490 1489 1489
1451 1453 1454 1455 1457 1459 1460 1461 1463 1464 1465 1467 1468 1469 1470 1472 1473 1475 1475 1476 1477 1478 1479 1479 1480 1481 1482 1483 1484 1484 1485 1485 1486 1486 1486 1487 1487 1487 1488 1488 1489 1489 1489 1489 1489 1489 1489 1489 1489 1489 1489 1489 1490 1490 1490 1490 1490 1490 1490 1490 1489 1489 1489 1489 1489 1488 1488 1488 1487
1451 1452 1454 1455 1456 1458 1459 1461 1462 1463 1465 1466 1467 1469 1470 1471 1472 1474 1475 1475 1476 1477 1478 1479 1479 1480 1481 1482 1483 1484 1484 1485 1485 1485 1485 1486 1486 1486 1487 1487 1488 1488 1488 1488 1488 1488 1488 1488 1488 1488 1488 1489 1489 1489 1489 1489 1489 1489 1488 1488 1488 1488 1488 1487 1487 1487 1486 1486 1486
1450 1452 1453 1455 1456 1457 1458 1460 1461 1463 1464 1465 1467 1468 1469 1470 1471 1472 1473 1475 1475 1476 1477 1478 1478 1480 1480 1481 1482 1483 1483 1484 1484 1485 1485 1485 1485 1486 1486 1486 1487 1487 1487 1487 1487 1487 1487 1487 1487 1487 1488 1488 1488 1488 1488 1488 1488 1488 1487 1487 1487 1487 1486 1486 1486 1485 1485 1485 1485
1450 1451 1452 1454 1455 1456 1458 1459 1461 1462 1464 1465 1466 1467 1468 1470 1470 1471 1473 1474 1475 1475 1476 1477 1478 1479 1480 1481 1482 1482 1483 1483 1483 1484 1484 1485 1485 1485 1485 1486 1486 1486 1486 1486 1486 1486 1486 1486 1486 1487 1487 1487 1487 1488 1488 1488 1487 1487 1486 1486 1486 1485 1485 1485 1485 1485 1484 1484 1484
1449 1450 1451 1453 1455 1456 1458 1459 1460 1462 1463 1464 1465 1466 1467 1469 1470 1471 1472 1473 1474 1475 1475 1477 1478 1479 1480 1480 1481 1481 1482 1482 1482 1483 1483 1484 1484 1485 1485 1485 1485 1485 1485 1485 1485 1485 1486 1486 1486 1486 1486 1487 1487 1487 1487 1487 1486 1486 1486 1485 1485 1485 1484 1484 1484 1484 1484 1483 1483
1448 1450 1451 1453 1454 1456 1457 1459 1460 1461 1462 1463 1464 1465 1466 1468 1469 1470 1471 1472 1473 1474 1475 1476 1477 1478 1479 1480 1480 1480 1480 1481 1481 1482 1482 1483 1483 1484 1484 1484 1484 1484 1485 1485 1485 1485 1485 1485 1486 1486 1486 1486 1486 1486 1486 1485 1485 1485 1485 1485 1484 1484 1484 1483 1483 1483 1483 1483 1483
1448 1450 1451 1452 1454 1455 1456 1458 1459 1460 1461 1462 1463 1464 1465 1467 1468 1469 1470 1471 1473 1474 1475 1476 1477 1478 1478 1479 1479 1479 1480 1480 1480 1481 1481 1482 1482 1483 1483 1483 1483 1483 1483 1484 1484 1484 1485 1485 1485 1485 1485 1485 1485 1485 1485 1485 1484 1484 1484 1484 1483 1483 1483 1482 1482 1482 1482 1482 1482
1448 1449 1450 1452 1453 1455 1456 1457 1458 1459 1460 1461 1462 1464 1465 1466 1468 1469 1470 1471 1472 1473 1474 1475 1476 1477 1477 1477 1478 1478 1478 1479 1480 1480 1481 1481 1482 1482 1482 1482 1482 1483 1483 1483 1484 1484 1484 1485 1485 1485 1485 1485 1484 1484 1484 1483 1483 1483 1483 1483 1482 1482 1482 1482 1481 1481 1481 1481 1481
1447 1449 1450 1451 1453 1454 1455 1457 1458 1459 1460 1460 1462 1463 1465 1466 1467 1468 1469 1470 1471 1473 1474 1474 1475 1475 1476 1476 1477 1477 1478 1479 1479 1480 1480 1480 1481 1481 1481 1481 1482 1482 1482 1483 1483 1484 1484 1484 1484 1484 1484 1484 1483 1483 1483 1482 1482 1482 1482 1482 1481 1481 1481 1481 1481 1481 1481 1481 1481
1447 1448 1450 1451 1452 1454 1455 1456 1457 1458 1459 1460 1461 1463 1464 1465 1467 1468 1469 1470 1471 1472 1473 1473 1474 1475 1475 1475 1476 1477 1477 1478 1479 1479 1480 1480 1480 1480 1480 1481 1481 1481 1482 1482 1483 1483 1483 1483 1483 1483 1483 1482 1482 1482 1482 1482 1481 1481 1481 1481 1481 1480 1480 1480 1480 1480 1480 1480 1480
1447 1448 1450 1451 1452 1453 1455 1456 1457 1458 1459 1460 1462 1463 1464 1465 1466 1467 1469 1470 1470 1471 1472 1473 1473 1474 1474 1475 1475 1476 1476 1477 1478 1478 1479 1479 1479 1480 1480 1480 1480 1481 1481 1481 1482 1482 1482 1482 1482 1482 1481 1481 1481 1481 1481 1481 1481 1481 1480 1480 1480 1480 1480 1480 1480 1480 1480 1480 1480
1447 1448 1450 1451 1452 1453 1455 1455 1457 1458 1459 1460 1462 1463 1464 1465 1466 1467 1468 1469 1470 1471 1471 1472 1473 1473 1474 1475 1475 1475 1476 1476 1477 1477 1478 1478 1479 1479 1479 1480 1480 1480 1480 1480 1481 1481 1481 1481 1481 1481 1480 1480 1480 1480 1480 1480 1480 1480 1480 1480 1480 1480 1480 1480 1480 1480 1480 1480 1480
1447 1448 1449 1450 1452 1453 1455 1456 1457 1458 1459 1460 1462 1463 1464 1465 1466 1467 1468 1469 1470 1470 1471 1472 1472 1473 1474 1474 1475 1475 1476 1476 1476 1477 1477 1478 1478 1478 1479 1479 1479 1480 1480 1480 1480 1480 1480 1480 1480 1480 1480 1480 1480 1480 1480 1480 1480 1480 1480 1479 1479 1479 1479 1479 1480 1480 1480 1480 1480
1446 1448 1449 1450 1452 1453 1454 1455 1457 1458 1459 1460 1461 1462 1464 1465 1465 1466 1467 1468 1469 1470 1470 1471 1472 1473 1473 1474 1474 1475 1475 1476 1476 1476 1477 1477 1478 1478 1479 1479 1479 1479 1479 1480 1480 1480 1480 1480 1480 1479 1479 1479 1479 1479 1479 1479 1479 1479 1479 1479 1479 1479 1479 1479 1480 1480 1480 1480 1480
1446 1448 1449 1450 1452 1453 1454 1455 1457 1458 1459 1460 1461 1462 1463 1464 1465 1466 1467 1468 1469 1469 1470 1471 1471 1472 1473 1473 1474 1475 1475 1475 1475 1476 1476 1477 1477 1478 1478 1478 1478 1479 1479 1479 1479 1479 1479 1479 1479 1479 1479 1479 1479 1479 1479 1479 1479 1479 1479 1479 1479 1479 1479 1480 1480 1480 1480 1480 1480
1446 1448 1449 1450 1451 1453 1454 1455 1456 1458 1459 1460 1461 1462 1463 1464 1465 1466 1466 1467 1468 1469 1470 1470 1471 1472 1472 1473 1474 1474 1475 1475 1475 1475 1476 1476 1477 1477 1477 1477 1478 1478 1478 1478 1478 1479 1479 1479 1479 1479 1479 1479 1479 1478 1478 1478 1478 1479 1479 1479 1479 1479 1480 1480 1480 1480 1480 1480 1481
1446 1447 1449 1450 1451 1453 1454 1455 1456 1457 1458 1460 1460 1461 1462 1463 1464 1465 1466 1467 1468 1469 1470 1470 1471 1471 1472 1473 1473 1474 1474 1475 1475 1475 1476 1476 1476 1477 1477 1477 1477 1477 1478 1478 1478 1478 1478 1478 1478 1478 1478 1478 1478 1478 1478 1478 1478 1478 1479 1479 1479 1480 1480 1480 1480 1480 1480 1480 1480
1446 1447 1449 1450 1451 1452 1454 1455 1456 1457 1458 1459 1460 1461 1462 1463 1464 1465 1466 1467 1468 1469 1469 1470 1471 1471 1472 1472 1473 1474 1474 1475 1475 1475 1475 1476 1476 1476 1477 1477 1477 1477 1477 1477 1478 1478 1478 1478 1478 1478 1478 1478 1478 1478 1478 1478 1478 1479 1479 1479 1479 1480 1480 1480 1480 1480 1480 1480 1480
1446 1447 1449 1450 1451 1452 1453 1454 1455 1456 1457 1459 1460 1461 1462 1463 1464 1465 1466 1467 1467 1468 1469 1470 1470 1471 1472 1472 1473 1473 1474 1474 1475 1475 1475 1475 1476 1476 1476 1476 1477 1477 1477 1477 1477 1477 1478 1478 1478 1478 1478 1478 1478 1478 1478 1478 1478 1479 1479 1479 1479 1480 1480 1480 1480 1480 1480 1480 1480
1445 1447 1448 1449 1450 1451 1453 1454 1455 1456 1457 1458 1459 1460 1461 1463 1464 1465 1465 1466 1467 1468 1469 1470 1470 1471 1471 1472 1472 1473 1473 1474 1474 1474 1475 1475 1475 1476 1476 1476 1476 1477 1477 1477 1477 1477 1478 1478 1478 1478 1478 1478 1478 1478 1478 1478 1479 1479 1479 1479 1480 1480 1480 1480 1480 1480 1480 1480 1481
1445 1446 1447 1449 1450 1451 1452 1453 1455 1456 1457 1458 1459 1460 1461 1462 1464 1465 1465 1466 1467 1468 1468 1469 1470 1470 1471 1471 1472 1472 1473 1473 1474 1474 1474 1475 1475 1475 1476 1476 1476 1477 1477 1477 1477 1477 1477 1478 1478 1478 1478 1478 1478 1478 1478 1479 1479 1479 1479 1480 1480 1480 1480 1480 1480 1481 1481 1481 1481